Tracking 25410 objects as of 21-Jan-2022
HD Live streaming from Space Station
objects crossing your sky now

VANGUARD 3

Track VANGUARD 3 now!
10-day predictions
VANGUARD 3 is classified as:


NORAD ID: 20
Int'l Code: 1959-007A
Perigee: 515.3 km
Apogee: 3,267.1 km
Inclination: 33.3 °
Period: 124.6 minutes
Semi major axis: 8262 km
RCS: 0.654 m2 (medium)
Launch date: September 18, 1959
Source: United States (US)
Launch site: AIR FORCE EASTERN TEST RANGE (AFETR)
aabbcc
Your satellite tracking list
Your tracking list is empty




NASA's NSSDC Master Catalog

Two Line Element Set (TLE):
1    20U 59007A   22021.38572294  .00000730  00000-0  30117-3 0  9995
2    20  33.3413 265.0433 1665291 119.5069 258.1847 11.56004916298103
Source of the keplerian elements: AFSPC